+ View the NASA Portal
+ Center for Near-Earth Object Studies
IMPORTANT:
The SSD Announcement email list is now available. Major changes are coming in the near future, including possible hostname and/or URL changes. To be notified of such changes, subscribe to this email list.
Please visit
this page
for more details.
Don't show this message again
JPL Small-Body Database Browser
Search:
[
help
]
266406 (2007 FQ2)
Classification:
Main-belt Asteroid
SPK-ID:
2266406
[
Ephemeris
|
Orbit Diagram
|
Orbital Elements
|
Mission Design
|
Physical Parameters
|
Discovery Circumstances
|
Close-Approach Data
]
[ show orbit diagram ]
Orbital Elements at Epoch 2458600.5 (2019-Apr-27.0) TDB
Reference:
JPL 12
(heliocentric ecliptic J2000)
Element
Value
Uncertainty (1-sigma)
Units
e
.1682205418541772
1.2852e-07
a
2.622555576533895
5.1598e-08
au
q
2.181387856406669
3.716e-07
au
i
13.66651155135518
9.3495e-06
deg
node
84.05031835289132
3.1351e-05
deg
peri
100.9751817459045
5.1173e-05
deg
M
304.3413893710212
5.3856e-05
deg
t
p
2458840.336533176631
(2019-Dec-22.83653318)
0.00023818
TDB
period
1551.263155293949
4.25
4.5781e-05
1.253e-07
d
yr
n
.2320689425075551
6.8489e-09
deg/d
Q
3.063723296661121
6.0278e-08
au
Orbit Determination Parameters
# obs. used (total)
196
data-arc span
6260 days (17.14 yr)
first obs. used
2001-11-20
last obs. used
2019-01-10
planetary ephem.
DE431
SB-pert. ephem.
SB431-N16
condition code
0
norm. resid. RMS
.59659
source
ORB
producer
Otto Matic
solution date
2019-Jul-14 09:14:05
Additional Information
Earth MOID
= 1.23032 au
Jupiter MOID
= 2.05361 au
T_jup
= 3.344
[ show covariance matrix ]
[
Ephemeris
|
Orbit Diagram
|
Orbital Elements
|
Mission Design
|
Physical Parameters
|
Discovery Circumstances
|
Close-Approach Data
]
Physical Parameter Table
Parameter
Symbol
Value
Units
Sigma
Reference
Notes
absolute magnitude
H
16.1
n/a
MPO454980
266406 (2007 FQ2)
Discovered 2007-Mar-16 by CSS at Catalina
Reference:
20110218/Numbers.arc
Last Updated:
2011-02-22
[ show close-approach data ]
[
Ephemeris
|
Orbit Diagram
|
Orbital Elements
|
Mission Design
|
Physical Parameters
|
Discovery Circumstances
|
Close-Approach Data
]
2019-Dec-15 05:46 UT
(server date/time)
Site Manager:
Ryan S. Park
Webmaster
:
Alan B. Chamberlin